Location: Ravensburg
(47.7866°N, 9.6124°E)
Time: 23:24:17
(UTC+01:00)

ITAMSAT 1 - Visible Passes

Search period start: 14 March 2026 00:00
Search period end: 24 March 2026 00:00
Orbit: 781 x 794 km, 98.7° (Epoch: 14 March)

Date Brightness Start Highest point End Pass type
(mag) Time Alt. Az. Time Alt. Az. Time Alt. Az.
14 Mar 8.4 20:54:26 37° NE 20:54:26 37° NE 20:58:21 10° N visible
14 Mar 9.7 22:35:05 24° NW 22:35:05 24° NW 22:37:38 10° NNW visible
15 Mar 8.9 20:23:35 24° ENE 20:23:35 24° ENE 20:27:32 10° N visible
15 Mar 8.9 22:04:15 38° NW 22:04:15 38° NW 22:07:38 10° NNW visible
16 Mar 9.4 19:52:45 14° ENE 19:53:31 14° NE 19:56:14 10° NNE visible
16 Mar 8.2 21:33:25 52° N 21:33:25 52° N 21:37:20 10° NNW visible
16 Mar 10.3 23:14:04 13° WNW 23:14:04 13° WNW 23:15:06 10° NW visible
17 Mar 8.2 21:02:35 43° NE 21:02:35 43° NE 21:06:49 10° N visible
17 Mar 9.7 22:43:14 22° WNW 22:43:14 22° WNW 22:45:52 10° NW visible
18 Mar 8.7 20:31:44 27° ENE 20:31:46 27° ENE 20:36:04 10° N visible
18 Mar 8.9 22:12:24 37° NW 22:12:24 37° NW 22:15:57 10° NNW visible
19 Mar 9.3 20:00:54 16° ENE 20:01:47 17° NE 20:04:56 10° NNE visible
19 Mar 8.1 21:41:34 58° NNW 21:41:34 58° NNW 21:45:44 10° NNW visible
19 Mar 10.4 23:22:13 11° WNW 23:22:13 11° WNW 23:22:54 10° WNW visible
20 Mar 8.0 21:10:44 51° NE 21:10:44 51° NE 21:15:16 10° N visible
20 Mar 9.8 22:51:23 21° WNW 22:51:23 21° WNW 22:54:02 10° NW visible
21 Mar 8.5 20:39:54 31° ENE 20:40:04 31° ENE 20:44:35 10° N visible
21 Mar 9.0 22:20:33 36° WNW 22:20:33 36° WNW 22:24:16 10° NNW visible
22 Mar 9.1 20:09:04 18° ENE 20:10:02 19° ENE 20:13:35 10° NNE visible
22 Mar 8.0 21:49:43 61° NW 21:49:43 61° NW 21:54:06 10° NNW visible
23 Mar 9.6 19:38:35 10° ENE 19:40:09 11° NE 19:41:44 10° NNE visible
23 Mar 7.7 21:18:53 61° NE 21:18:53 61° NE 21:23:42 10° N visible
23 Mar 9.9 22:59:33 18° WNW 22:59:33 18° WNW 23:02:10 10° NW visible
